Regional Weather Roundup
Issued by NWS Kansas City/Pleasant Hill, MO

Home | Current Version | Previous Version | Graphics & Text | Print | Product List | Glossary Off
Versions: 1 2 3 4 5 6 7 8 9 10 11 12 13 14 15 16 17 18 19 20 21 22 23 24 25 26 27

000
ASUS43 KEAX 211210
RWREAX

WEATHER ROUNDUP FOR EASTERN KANSAS AND NORTHWEST MISSOURI
NATIONAL WEATHER SERVICE KANSAS CITY/PLEASANT HILL MO
700 AM CDT FRI JUL 21 2017

KSZ040-057-103>105-MOZ028-029-037-043-211300-
...KANSAS CITY METROPOLITAN AREA...

CITY           SKY/WX    TMP DP  RH WIND       PRES   REMARKS
K.C. INTL      PTCLDY    79  72  79 S9        29.95S
6HR MIN TEMP:  78; 6HR MAX TEMP:  81;

K.C. DOWNTOWN  CLEAR     84  72  67 S9        29.94R
6HR MIN TEMP:  83; 6HR MAX TEMP:  86;

LEES SUMMIT    CLEAR     80  73  79 SW12      29.97R
6HR MIN TEMP:  80; 6HR MAX TEMP:  83;

OLATHE - IXD   CLEAR     79  72  79 S10       29.97R
6HR MIN TEMP:  78; 6HR MAX TEMP:  81;

OLATHE - OJC   CLEAR     76  73  91 S5        29.97R
6HR MIN TEMP:  76; 6HR MAX TEMP:  81;

LAWRENCE       CLEAR     80  73  79 SE5       29.94R

$$

MOZ001>008-011>017-020>025-030>033-038>040-044>046-053-054-211300-
...NORTHERN AND CENTRAL MISSOURI...

CITY           SKY/WX    TMP DP  RH WIND       PRES   REMARKS
ST. JOSEPH     CLEAR     79  75  87 S8        29.92S
6HR MIN TEMP:  77; 6HR MAX TEMP:  80;

MOSBY          SUNNY     77  72  83 CALM      29.95S
WARRENSBURG    CLEAR     75  72  88 S6        29.98S
WHITEMAN AFB   CLEAR     76  76 100 S7        29.98R
6HR MIN TEMP:  73; 6HR MAX TEMP:  77;

CLINTON        CLEAR     77  73  88 S7        30.00R
SEDALIA        NOT AVBL
WARSAW         NOT AVBL
CHILLICOTHE      N/A     78  75  90 S3        29.95F
6HR MIN TEMP:  76; 6HR MAX TEMP:  83;

KIRKSVILLE     PTCLDY    76  74  93 S6        29.97S
6HR MIN TEMP:  76; 6HR MAX TEMP:  80;


$$

MOZ041-047>049-056>058-063>065-088>090-097-211300-
...EASTERN AND SOUTHERN MISSOURI...

CITY           SKY/WX    TMP DP  RH WIND       PRES   REMARKS
ST. LOUIS INTL MOSUNNY   83  72  69 W8        30.00R
6HR MIN TEMP:  82; 6HR MAX TEMP:  90;

SPIRIT OF STL  MOSUNNY   79  74  84 NW3       29.99R
COLUMBIA       CLEAR     75  73  93 S5        30.01R
JEFFERSON CITY CLEAR     78  74  87 SE5       30.00R
ROLLA          CLEAR     75  72  90 SW7       30.04R
OSAGE BEACH    CLEAR     73  70  90 CALM      30.03R
SPRINGFIELD    CLEAR     74  72  93 S5        30.04S
BRANSON        CLEAR     77  72  83 SW3       30.07R
JOPLIN         CLEAR     79  74  84 S7        30.02R
WEST PLAINS    CLEAR     75  72  90 CALM      30.07R FOG

$$

IAZ060-094-KSZ022-034>040-054-083-096-NEZ052-066-093-211300-
...KANSAS...SOUTHEAST NEBRASKA AND IOWA...

CITY           SKY/WX    TMP DP  RH WIND       PRES   REMARKS
TOPEKA         CLEAR     80  73  79 CALM      29.93R
6HR MIN TEMP:  79; 6HR MAX TEMP:  84;

MANHATTAN      CLEAR     80  70  71 SW10      29.91R
EMPORIA        CLEAR     76  70  82 S12       29.95R
CHANUTE        CLEAR     79  72  79 MISG      29.99R
WICHITA        PTCLDY    76  70  82 S7        29.95S
OMAHA          MOCLDY    82  70  66 SE10      29.84S
LINCOLN        CLEAR     80  68  66 S9        29.85R
FALLS CITY     PTCLDY    78  72  81 S5        29.89R
LAMONI         CLOUDY    77  75  93 S7        29.93S
DES MOINES     CLOUDY    76  73  91 S7        29.89S

$$





USA.gov is the U.S. government's official web portal to all federal, state and local government web resources and services.